User: anonymous
Location: Bergen
(60.3910°N, 5.3250°E)
Time: 18:12:46
(UTC+02:00)
Language:

Cosmos 1943 - Orbit

View from above orbital plane
View from above orbital plane
View from above satellite
View from above satellite

Ground track
Ground track

The orbit data is extracted from the following two-line orbital elements,

1 19119U 88039A   14264.97385248 -.00000132  00000-0 -43605-4 0  2513
2 19119 071.0052 039.9427 0009907 145.6320 352.5482 14.14945171360744
Epoch (UTC): 21 September 2014 23:22:20
Eccentricity: 0.0009907
inclination: 71.0052°
perigee height: 835 km
apogee height: 849 km
right ascension of ascending node: 39.9427°
argument of perigee: 145.6320°
revolutions per day: 14.14945171
mean anomaly at epoch: 352.5482°
orbit number at epoch: 36074

The dashed part of the orbit path shows where the satellite is in the earth's shadow,  

DLR